Year,Month,Day,Hour,Minute,Value (Times are PST for temperature in C)
2018,04,18,00,00,6.00
2018,04,18,00,01,5.90
2018,04,18,00,02,5.90
2018,04,18,00,03,5.90
2018,04,18,00,04,5.90
2018,04,18,00,05,5.90
2018,04,18,00,06,5.90
2018,04,18,00,07,5.90
2018,04,18,00,08,5.80
2018,04,18,00,09,5.80
2018,04,18,00,10,5.80
2018,04,18,00,11,5.80
2018,04,18,00,12,5.70
2018,04,18,00,13,5.70
2018,04,18,00,14,5.70
2018,04,18,00,15,5.70
2018,04,18,00,16,5.70
2018,04,18,00,17,5.70
2018,04,18,00,18,5.70
2018,04,18,00,19,5.70
2018,04,18,00,20,5.70
2018,04,18,00,21,5.60
2018,04,18,00,22,5.60
2018,04,18,00,23,5.50
2018,04,18,00,24,5.40
2018,04,18,00,25,5.40
2018,04,18,00,26,5.30
2018,04,18,00,27,5.30
2018,04,18,00,28,5.30
2018,04,18,00,29,5.20
2018,04,18,00,30,5.20
2018,04,18,00,31,5.20
2018,04,18,00,32,5.20
2018,04,18,00,33,5.20
2018,04,18,00,34,5.20
2018,04,18,00,35,5.20
2018,04,18,00,36,5.10
2018,04,18,00,37,5.10
2018,04,18,00,38,5.10
2018,04,18,00,39,5.10
2018,04,18,00,40,5.10
2018,04,18,00,41,5.10
2018,04,18,00,42,5.10
2018,04,18,00,43,5.10
2018,04,18,00,44,5.10
2018,04,18,00,45,5.10
2018,04,18,00,46,5.10
2018,04,18,00,47,5.20
2018,04,18,00,48,5.20
2018,04,18,00,49,5.20
2018,04,18,00,50,5.30
2018,04,18,00,51,5.30
2018,04,18,00,52,5.30
2018,04,18,00,53,5.40
2018,04,18,00,54,5.40
2018,04,18,00,55,5.40
2018,04,18,00,56,5.40
2018,04,18,00,57,5.40
2018,04,18,00,58,5.40
2018,04,18,00,59,5.40
2018,04,18,01,00,5.50
2018,04,18,01,01,5.50
2018,04,18,01,02,5.50
2018,04,18,01,03,5.50
2018,04,18,01,04,5.50
2018,04,18,01,05,5.60
2018,04,18,01,06,5.60
2018,04,18,01,07,5.60
2018,04,18,01,08,5.60
2018,04,18,01,09,5.60
2018,04,18,01,10,5.60
2018,04,18,01,11,5.60
2018,04,18,01,12,5.60
2018,04,18,01,13,5.60
2018,04,18,01,14,5.60
2018,04,18,01,15,5.60
2018,04,18,01,16,5.50
2018,04,18,01,17,5.50
2018,04,18,01,18,5.40
2018,04,18,01,19,5.40
2018,04,18,01,20,5.40
2018,04,18,01,21,5.40
2018,04,18,01,22,5.30
2018,04,18,01,23,5.30
2018,04,18,01,24,5.30
2018,04,18,01,25,5.30
2018,04,18,01,26,5.20
2018,04,18,01,27,5.20
2018,04,18,01,28,5.20
2018,04,18,01,29,5.20
2018,04,18,01,30,5.10
2018,04,18,01,31,5.10
2018,04,18,01,32,5.10
2018,04,18,01,33,5.10
2018,04,18,01,34,5.10
2018,04,18,01,35,5.00
2018,04,18,01,36,5.00
2018,04,18,01,37,5.00
2018,04,18,01,38,5.00
2018,04,18,01,39,4.90
2018,04,18,01,40,4.90
2018,04,18,01,41,4.90
2018,04,18,01,42,4.90
2018,04,18,01,43,4.90
2018,04,18,01,44,4.90
2018,04,18,01,45,4.90
2018,04,18,01,46,4.90
2018,04,18,01,47,4.90
2018,04,18,01,48,4.90
2018,04,18,01,49,4.90
2018,04,18,01,50,4.90
2018,04,18,01,51,4.90
2018,04,18,01,52,5.00
2018,04,18,01,53,5.00
2018,04,18,01,54,5.00
2018,04,18,01,55,5.00
2018,04,18,01,56,5.00
2018,04,18,01,57,5.00
2018,04,18,01,58,5.00
2018,04,18,01,59,5.00
2018,04,18,02,00,5.10
2018,04,18,02,01,5.10
2018,04,18,02,02,5.10
2018,04,18,02,03,5.10
2018,04,18,02,04,5.10
2018,04,18,02,05,5.10
2018,04,18,02,06,5.20
2018,04,18,02,07,5.20
2018,04,18,02,08,5.20
2018,04,18,02,09,5.30
2018,04,18,02,10,5.30
2018,04,18,02,11,5.30
2018,04,18,02,12,5.30
2018,04,18,02,13,5.30
2018,04,18,02,14,5.30
2018,04,18,02,15,5.40
2018,04,18,02,16,5.40
2018,04,18,02,17,5.40
2018,04,18,02,18,5.40
2018,04,18,02,19,5.40
2018,04,18,02,20,5.40
2018,04,18,02,21,5.40
2018,04,18,02,22,5.40
2018,04,18,02,23,5.40
2018,04,18,02,24,5.40
2018,04,18,02,25,5.40
2018,04,18,02,26,5.40
2018,04,18,02,27,5.40
2018,04,18,02,28,5.40
2018,04,18,02,29,5.40
2018,04,18,02,30,5.40
2018,04,18,02,31,5.40
2018,04,18,02,32,5.40
2018,04,18,02,33,5.40
2018,04,18,02,34,5.40
2018,04,18,02,35,5.40
2018,04,18,02,36,5.40
2018,04,18,02,37,5.40
2018,04,18,02,38,5.40
2018,04,18,02,39,5.40
2018,04,18,02,40,5.40
2018,04,18,02,41,5.40
2018,04,18,02,42,5.40
2018,04,18,02,43,5.40
2018,04,18,02,44,5.40
2018,04,18,02,45,5.40
2018,04,18,02,46,5.40
2018,04,18,02,47,5.40
2018,04,18,02,48,5.40
2018,04,18,02,49,5.40
2018,04,18,02,50,5.40
2018,04,18,02,51,5.40
2018,04,18,02,52,5.40
2018,04,18,02,53,5.40
2018,04,18,02,54,5.40
2018,04,18,02,55,5.40
2018,04,18,02,56,5.40
2018,04,18,02,57,5.40
2018,04,18,02,58,5.40
2018,04,18,02,59,5.40
2018,04,18,03,00,5.40
2018,04,18,03,01,5.40
2018,04,18,03,02,5.40
2018,04,18,03,03,5.50
2018,04,18,03,04,5.50
2018,04,18,03,05,5.50
2018,04,18,03,06,5.50
2018,04,18,03,07,5.50
2018,04,18,03,08,5.50
2018,04,18,03,09,5.50
2018,04,18,03,10,5.40
2018,04,18,03,11,5.40
2018,04,18,03,12,5.40
2018,04,18,03,13,5.40
2018,04,18,03,14,5.40
2018,04,18,03,15,5.40
2018,04,18,03,16,5.40
2018,04,18,03,17,5.40
2018,04,18,03,18,5.40
2018,04,18,03,19,5.40
2018,04,18,03,20,5.40
2018,04,18,03,21,5.40
2018,04,18,03,22,5.40
2018,04,18,03,23,5.40
2018,04,18,03,24,5.40
2018,04,18,03,25,5.40
2018,04,18,03,26,5.40
2018,04,18,03,27,5.40
2018,04,18,03,28,5.40
2018,04,18,03,29,5.40
2018,04,18,03,30,5.40
2018,04,18,03,31,5.40
2018,04,18,03,32,5.40
2018,04,18,03,33,5.40
2018,04,18,03,34,5.40
2018,04,18,03,35,5.40
2018,04,18,03,36,5.40
2018,04,18,03,37,5.40
2018,04,18,03,38,5.40
2018,04,18,03,39,5.40
2018,04,18,03,40,5.40
2018,04,18,03,41,5.40
2018,04,18,03,42,5.40
2018,04,18,03,43,5.40
2018,04,18,03,44,5.40
2018,04,18,03,45,5.40
2018,04,18,03,46,5.40
2018,04,18,03,47,5.40
2018,04,18,03,48,5.40
2018,04,18,03,49,5.40
2018,04,18,03,50,5.40
2018,04,18,03,51,5.40
2018,04,18,03,52,5.40
2018,04,18,03,53,5.40
2018,04,18,03,54,5.40
2018,04,18,03,55,5.40
2018,04,18,03,56,5.40
2018,04,18,03,57,5.40
2018,04,18,03,58,5.40
2018,04,18,03,59,5.40
2018,04,18,04,00,5.40
2018,04,18,04,01,5.40
2018,04,18,04,02,5.40
2018,04,18,04,03,5.40
2018,04,18,04,04,5.40
2018,04,18,04,05,5.40
2018,04,18,04,06,5.40
2018,04,18,04,07,5.40
2018,04,18,04,08,5.40
2018,04,18,04,09,5.40
2018,04,18,04,10,5.40
2018,04,18,04,11,5.40
2018,04,18,04,12,5.40
2018,04,18,04,13,5.40
2018,04,18,04,14,5.40
2018,04,18,04,15,5.40
2018,04,18,04,16,5.40
2018,04,18,04,17,5.40
2018,04,18,04,18,5.40
2018,04,18,04,19,5.40
2018,04,18,04,20,5.50
2018,04,18,04,21,5.50
2018,04,18,04,22,5.50
2018,04,18,04,23,5.50
2018,04,18,04,24,5.50
2018,04,18,04,25,5.50
2018,04,18,04,26,5.60
2018,04,18,04,27,5.60
2018,04,18,04,28,5.60
2018,04,18,04,29,5.60
2018,04,18,04,30,5.60
2018,04,18,04,31,5.60
2018,04,18,04,32,5.60
2018,04,18,04,33,5.60
2018,04,18,04,34,5.60
2018,04,18,04,35,5.60
2018,04,18,04,36,5.60
2018,04,18,04,37,5.60
2018,04,18,04,38,5.60
2018,04,18,04,39,5.60
2018,04,18,04,40,5.60
2018,04,18,04,41,5.60
2018,04,18,04,42,5.60
2018,04,18,04,43,5.60
2018,04,18,04,44,5.50
2018,04,18,04,45,5.50
2018,04,18,04,46,5.50
2018,04,18,04,47,5.50
2018,04,18,04,48,5.50
2018,04,18,04,49,5.50
2018,04,18,04,50,5.50
2018,04,18,04,51,5.50
2018,04,18,04,52,5.40
2018,04,18,04,53,5.40
2018,04,18,04,54,5.40
2018,04,18,04,55,5.40
2018,04,18,04,56,5.40
2018,04,18,04,57,5.40
2018,04,18,04,58,5.40
2018,04,18,04,59,5.40
2018,04,18,05,00,5.40
2018,04,18,05,01,5.40
2018,04,18,05,02,5.40
2018,04,18,05,03,5.40
2018,04,18,05,04,5.40
2018,04,18,05,05,5.40
2018,04,18,05,06,5.40
2018,04,18,05,07,5.40
2018,04,18,05,08,5.40
2018,04,18,05,09,5.40
2018,04,18,05,10,5.40
2018,04,18,05,11,5.40
2018,04,18,05,12,5.40
2018,04,18,05,13,5.40
2018,04,18,05,14,5.40
2018,04,18,05,15,5.40
2018,04,18,05,16,5.40
2018,04,18,05,17,5.40
2018,04,18,05,18,5.40
2018,04,18,05,19,5.40
2018,04,18,05,20,5.40
2018,04,18,05,21,5.40
2018,04,18,05,22,5.40
2018,04,18,05,23,5.40
2018,04,18,05,24,5.40
2018,04,18,05,25,5.40
2018,04,18,05,26,5.40
2018,04,18,05,27,5.40
2018,04,18,05,28,5.40
2018,04,18,05,29,5.40
2018,04,18,05,30,5.40
2018,04,18,05,31,5.40
2018,04,18,05,32,5.40
2018,04,18,05,33,5.40
2018,04,18,05,34,5.40
2018,04,18,05,35,5.40
2018,04,18,05,36,5.40
2018,04,18,05,37,5.40
2018,04,18,05,38,5.40
2018,04,18,05,39,5.40
2018,04,18,05,40,5.40
2018,04,18,05,41,5.40
2018,04,18,05,42,5.40
2018,04,18,05,43,5.40
2018,04,18,05,44,5.40
2018,04,18,05,45,5.40
2018,04,18,05,46,5.40
2018,04,18,05,47,5.40
2018,04,18,05,48,5.40
2018,04,18,05,49,5.40
2018,04,18,05,50,5.40
2018,04,18,05,51,5.40
2018,04,18,05,52,5.40
2018,04,18,05,53,5.40
2018,04,18,05,54,5.40
2018,04,18,05,55,5.40
2018,04,18,05,56,5.40
2018,04,18,05,57,5.40
2018,04,18,05,58,5.40
2018,04,18,05,59,5.40
2018,04,18,06,00,5.40
2018,04,18,06,01,5.40
2018,04,18,06,02,5.40
2018,04,18,06,03,5.40
2018,04,18,06,04,5.40
2018,04,18,06,05,5.40
2018,04,18,06,06,5.40
2018,04,18,06,07,5.40
2018,04,18,06,08,5.40
2018,04,18,06,09,5.40
2018,04,18,06,10,5.40
2018,04,18,06,11,5.40
2018,04,18,06,12,5.40
2018,04,18,06,13,5.40
2018,04,18,06,14,5.40
2018,04,18,06,15,5.40
2018,04,18,06,16,5.40
2018,04,18,06,17,5.40
2018,04,18,06,18,5.40
2018,04,18,06,19,5.40
2018,04,18,06,20,5.40
2018,04,18,06,21,5.40
2018,04,18,06,22,5.40
2018,04,18,06,23,5.40
2018,04,18,06,24,5.40
2018,04,18,06,25,5.40
2018,04,18,06,26,5.30
2018,04,18,06,27,5.30
2018,04,18,06,28,5.30
2018,04,18,06,29,5.30
2018,04,18,06,30,5.30
2018,04,18,06,31,5.30
2018,04,18,06,32,5.30
2018,04,18,06,33,5.20
2018,04,18,06,34,5.20
2018,04,18,06,35,5.20
2018,04,18,06,36,5.20
2018,04,18,06,37,5.20
2018,04,18,06,38,5.20
2018,04,18,06,39,5.20
2018,04,18,06,40,5.10
2018,04,18,06,41,5.10
2018,04,18,06,42,5.10
2018,04,18,06,43,5.10
2018,04,18,06,44,5.10
2018,04,18,06,45,5.10
2018,04,18,06,46,5.10
2018,04,18,06,47,5.10
2018,04,18,06,48,5.10
2018,04,18,06,49,5.10
2018,04,18,06,50,5.10
2018,04,18,06,51,5.10
2018,04,18,06,52,5.10
2018,04,18,06,53,5.10
2018,04,18,06,54,5.10
2018,04,18,06,55,5.10
2018,04,18,06,56,5.10
2018,04,18,06,57,5.10
2018,04,18,06,58,5.10
2018,04,18,06,59,5.10
2018,04,18,07,00,5.10
2018,04,18,07,01,5.10
2018,04,18,07,02,5.10
2018,04,18,07,03,5.10
2018,04,18,07,04,5.10
2018,04,18,07,05,5.10
2018,04,18,07,06,5.10
2018,04,18,07,07,5.20
2018,04,18,07,08,5.20
2018,04,18,07,09,5.20
2018,04,18,07,10,5.20
2018,04,18,07,11,5.20
2018,04,18,07,12,5.30
2018,04,18,07,13,5.30
2018,04,18,07,14,5.30
2018,04,18,07,15,5.30
2018,04,18,07,16,5.30
2018,04,18,07,17,5.30
2018,04,18,07,18,5.30
2018,04,18,07,19,5.40
2018,04,18,07,20,5.40
2018,04,18,07,21,5.40
2018,04,18,07,22,5.40
2018,04,18,07,23,5.40
2018,04,18,07,24,5.40
2018,04,18,07,25,5.40
2018,04,18,07,26,5.50
2018,04,18,07,27,5.50
2018,04,18,07,28,5.50
2018,04,18,07,29,5.50
2018,04,18,07,30,5.60
2018,04,18,07,31,5.60
2018,04,18,07,32,5.60
2018,04,18,07,33,5.60
2018,04,18,07,34,5.60
2018,04,18,07,35,5.70
2018,04,18,07,36,5.70
2018,04,18,07,37,5.70
2018,04,18,07,38,5.70
2018,04,18,07,39,5.70
2018,04,18,07,40,5.80
2018,04,18,07,41,5.80
2018,04,18,07,42,5.80
2018,04,18,07,43,5.80
2018,04,18,07,44,5.80
2018,04,18,07,45,5.90
2018,04,18,07,46,5.90
2018,04,18,07,47,5.90
2018,04,18,07,48,5.90
2018,04,18,07,49,5.90
2018,04,18,07,50,6.00
2018,04,18,07,51,6.00
2018,04,18,07,52,6.00
2018,04,18,07,53,6.10
2018,04,18,07,54,6.10
2018,04,18,07,55,6.10
2018,04,18,07,56,6.20
2018,04,18,07,57,6.20
2018,04,18,07,58,6.20
2018,04,18,07,59,6.20
2018,04,18,08,00,6.30
2018,04,18,08,01,6.30
2018,04,18,08,02,6.30
2018,04,18,08,03,6.30
2018,04,18,08,04,6.30
2018,04,18,08,05,6.40
2018,04,18,08,06,6.40
2018,04,18,08,07,6.40
2018,04,18,08,08,6.50
2018,04,18,08,09,6.50
2018,04,18,08,10,6.60
2018,04,18,08,11,6.60
2018,04,18,08,12,6.70
2018,04,18,08,13,6.70
2018,04,18,08,14,6.70
2018,04,18,08,15,6.80
2018,04,18,08,16,6.80
2018,04,18,08,17,6.80
2018,04,18,08,18,6.90
2018,04,18,08,19,6.90
2018,04,18,08,20,7.00
2018,04,18,08,21,7.00
2018,04,18,08,22,7.10
2018,04,18,08,23,7.10
2018,04,18,08,24,7.20
2018,04,18,08,25,7.20
2018,04,18,08,26,7.20
2018,04,18,08,27,7.20
2018,04,18,08,28,7.30
2018,04,18,08,29,7.30
2018,04,18,08,30,7.30
2018,04,18,08,31,7.30
2018,04,18,08,32,7.40
2018,04,18,08,33,7.40
2018,04,18,08,34,7.40
2018,04,18,08,35,7.50
2018,04,18,08,36,7.50
2018,04,18,08,37,7.60
2018,04,18,08,38,7.60
2018,04,18,08,39,7.60
2018,04,18,08,40,7.60
2018,04,18,08,41,7.70
2018,04,18,08,42,7.70
2018,04,18,08,43,7.70
2018,04,18,08,44,7.70
2018,04,18,08,45,7.70
2018,04,18,08,46,7.70
2018,04,18,08,47,7.80
2018,04,18,08,48,7.80
2018,04,18,08,49,7.90
2018,04,18,08,50,7.90
2018,04,18,08,51,7.90
2018,04,18,08,52,7.90
2018,04,18,08,53,7.90
2018,04,18,08,54,7.90
2018,04,18,08,55,7.90
2018,04,18,08,56,7.90
2018,04,18,08,57,7.90
2018,04,18,08,58,7.90
2018,04,18,08,59,8.00
2018,04,18,09,00,8.00
2018,04,18,09,01,8.10
2018,04,18,09,02,8.10
2018,04,18,09,03,8.10
2018,04,18,09,04,8.10
2018,04,18,09,05,8.10
2018,04,18,09,06,8.20
2018,04,18,09,07,8.20
2018,04,18,09,08,8.20
2018,04,18,09,09,8.30
2018,04,18,09,10,8.30
2018,04,18,09,11,8.40
2018,04,18,09,12,8.40
2018,04,18,09,13,8.40
2018,04,18,09,14,8.40
2018,04,18,09,15,8.40
2018,04,18,09,16,8.30
2018,04,18,09,17,8.30
2018,04,18,09,18,8.30
2018,04,18,09,19,8.20
2018,04,18,09,20,8.20
2018,04,18,09,21,8.10
2018,04,18,09,22,8.10
2018,04,18,09,23,8.00
2018,04,18,09,24,8.00
2018,04,18,09,25,8.00
2018,04,18,09,26,8.10
2018,04,18,09,27,8.10
2018,04,18,09,28,8.20
2018,04,18,09,29,8.20
2018,04,18,09,30,8.30
2018,04,18,09,31,8.30
2018,04,18,09,32,8.40
2018,04,18,09,33,8.40
2018,04,18,09,34,8.50
2018,04,18,09,35,8.50
2018,04,18,09,36,8.50
2018,04,18,09,37,8.50
2018,04,18,09,38,8.50
2018,04,18,09,39,8.60
2018,04,18,09,40,8.60
2018,04,18,09,41,8.70
2018,04,18,09,42,8.90
2018,04,18,09,43,8.90
2018,04,18,09,44,9.00
2018,04,18,09,45,9.00
2018,04,18,09,46,9.10
2018,04,18,09,47,9.10
2018,04,18,09,48,9.10
2018,04,18,09,49,9.10
2018,04,18,09,50,9.10
2018,04,18,09,51,9.10
2018,04,18,09,52,9.10
2018,04,18,09,53,9.10
2018,04,18,09,54,9.20
2018,04,18,09,55,9.20
2018,04,18,09,56,9.20
2018,04,18,09,57,9.30
2018,04,18,09,58,9.30
2018,04,18,09,59,9.30
2018,04,18,10,00,9.30
2018,04,18,10,01,9.30
2018,04,18,10,02,9.30
2018,04,18,10,03,9.30
2018,04,18,10,04,9.30
2018,04,18,10,05,9.30
2018,04,18,10,06,9.30
2018,04,18,10,07,9.30
2018,04,18,10,08,9.30
2018,04,18,10,09,9.30
2018,04,18,10,10,9.30
2018,04,18,10,11,9.40
2018,04,18,10,12,9.40
2018,04,18,10,13,9.30
2018,04,18,10,14,9.40
2018,04,18,10,15,9.40
2018,04,18,10,16,9.40
2018,04,18,10,17,9.40
2018,04,18,10,18,9.40
2018,04,18,10,19,9.40
2018,04,18,10,20,9.40
2018,04,18,10,21,9.40
2018,04,18,10,22,9.40
2018,04,18,10,23,9.50
2018,04,18,10,24,9.60
2018,04,18,10,25,9.60
2018,04,18,10,26,9.60
2018,04,18,10,27,9.60
2018,04,18,10,28,9.60
2018,04,18,10,29,9.60
2018,04,18,10,30,9.60
2018,04,18,10,31,9.60
2018,04,18,10,32,9.50
2018,04,18,10,33,9.40
2018,04,18,10,34,9.40
2018,04,18,10,35,9.40
2018,04,18,10,36,9.40
2018,04,18,10,37,9.40
2018,04,18,10,38,9.50
2018,04,18,10,39,9.50
2018,04,18,10,40,9.60
2018,04,18,10,41,9.60
2018,04,18,10,42,9.60
2018,04,18,10,43,9.60
2018,04,18,10,44,9.70
2018,04,18,10,45,9.70
2018,04,18,10,46,9.80
2018,04,18,10,47,9.80
2018,04,18,10,48,9.90
2018,04,18,10,49,9.90
2018,04,18,10,50,10.00
2018,04,18,10,51,9.90
2018,04,18,10,52,9.90
2018,04,18,10,53,9.90
2018,04,18,10,54,10.00
2018,04,18,10,55,9.90
2018,04,18,10,56,10.00
2018,04,18,10,57,10.00
2018,04,18,10,58,10.10
2018,04,18,10,59,10.10
2018,04,18,11,00,10.20
2018,04,18,11,01,10.20
2018,04,18,11,02,10.10
2018,04,18,11,03,10.10
2018,04,18,11,04,10.00
2018,04,18,11,05,10.00
2018,04,18,11,06,10.10
2018,04,18,11,07,10.10
2018,04,18,11,08,10.10
2018,04,18,11,09,10.20
2018,04,18,11,10,10.20
2018,04,18,11,11,10.30
2018,04,18,11,12,10.30
2018,04,18,11,13,10.30
2018,04,18,11,14,10.30
2018,04,18,11,15,10.30
2018,04,18,11,16,10.30
2018,04,18,11,17,10.20
2018,04,18,11,18,10.20
2018,04,18,11,19,10.10
2018,04,18,11,20,10.10
2018,04,18,11,21,10.10
2018,04,18,11,22,10.10
2018,04,18,11,23,10.10
2018,04,18,11,24,10.10
2018,04,18,11,25,10.20
2018,04,18,11,26,10.20
2018,04,18,11,27,10.30
2018,04,18,11,28,10.20
2018,04,18,11,29,10.10
2018,04,18,11,30,10.10
2018,04,18,11,31,10.10
2018,04,18,11,32,10.20
2018,04,18,11,33,10.20
2018,04,18,11,34,10.30
2018,04,18,11,35,10.40
2018,04,18,11,36,10.40
2018,04,18,11,37,10.50
2018,04,18,11,38,10.50
2018,04,18,11,39,10.50
2018,04,18,11,40,10.40
2018,04,18,11,41,10.40
2018,04,18,11,42,10.40
2018,04,18,11,43,10.50
2018,04,18,11,44,10.50
2018,04,18,11,45,10.50
2018,04,18,11,46,10.50
2018,04,18,11,47,10.50
2018,04,18,11,48,10.40
2018,04,18,11,49,10.40
2018,04,18,11,50,10.30
2018,04,18,11,51,10.20
2018,04,18,11,52,10.20
2018,04,18,11,53,10.20
2018,04,18,11,54,10.20
2018,04,18,11,55,10.10
2018,04,18,11,56,10.10
2018,04,18,11,57,10.10
2018,04,18,11,58,10.10
2018,04,18,11,59,10.20
2018,04,18,12,00,10.20
2018,04,18,12,01,10.30
2018,04,18,12,02,10.50
2018,04,18,12,03,10.60
2018,04,18,12,04,10.70
2018,04,18,12,05,10.80
2018,04,18,12,06,10.80
2018,04,18,12,07,10.80
2018,04,18,12,08,10.90
2018,04,18,12,09,11.00
2018,04,18,12,10,11.00
2018,04,18,12,11,10.90
2018,04,18,12,12,10.90
2018,04,18,12,13,10.80
2018,04,18,12,14,10.70
2018,04,18,12,15,10.70
2018,04,18,12,16,10.80
2018,04,18,12,17,10.90
2018,04,18,12,18,11.00
2018,04,18,12,19,11.10
2018,04,18,12,20,11.20
2018,04,18,12,21,11.20
2018,04,18,12,22,11.30
2018,04,18,12,23,11.30
2018,04,18,12,24,11.20
2018,04,18,12,25,11.30
2018,04,18,12,26,11.40
2018,04,18,12,27,11.50
2018,04,18,12,28,11.60
2018,04,18,12,29,11.60
2018,04,18,12,30,11.70
2018,04,18,12,31,11.70
2018,04,18,12,32,11.60
2018,04,18,12,33,11.60
2018,04,18,12,34,11.60
2018,04,18,12,35,11.50
2018,04,18,12,36,11.50
2018,04,18,12,37,11.60
2018,04,18,12,38,11.60
2018,04,18,12,39,11.60
2018,04,18,12,40,11.60
2018,04,18,12,41,11.50
2018,04,18,12,42,11.50
2018,04,18,12,43,11.40
2018,04,18,12,44,11.40
2018,04,18,12,45,11.40
2018,04,18,12,46,11.40
2018,04,18,12,47,11.40
2018,04,18,12,48,11.50
2018,04,18,12,49,11.50
2018,04,18,12,50,11.40
2018,04,18,12,51,11.40
2018,04,18,12,52,11.30
2018,04,18,12,53,11.30
2018,04,18,12,54,11.30
2018,04,18,12,55,11.40
2018,04,18,12,56,11.40
2018,04,18,12,57,11.40
2018,04,18,12,58,11.40
2018,04,18,12,59,11.40
2018,04,18,13,00,11.40
2018,04,18,13,01,11.50
2018,04,18,13,02,11.50
2018,04,18,13,03,11.60
2018,04,18,13,04,11.60
2018,04,18,13,05,11.60
2018,04,18,13,06,11.60
2018,04,18,13,07,11.60
2018,04,18,13,08,11.70
2018,04,18,13,09,11.70
2018,04,18,13,10,11.70
2018,04,18,13,11,11.80
2018,04,18,13,12,11.90
2018,04,18,13,13,12.00
2018,04,18,13,14,12.10
2018,04,18,13,15,12.10
2018,04,18,13,16,12.20
2018,04,18,13,17,12.20
2018,04,18,13,18,12.40
2018,04,18,13,19,12.50
2018,04,18,13,20,12.40
2018,04,18,13,21,12.40
2018,04,18,13,22,12.30
2018,04,18,13,23,12.20
2018,04,18,13,24,12.20
2018,04,18,13,25,12.20
2018,04,18,13,26,12.30
2018,04,18,13,27,12.40
2018,04,18,13,28,12.50
2018,04,18,13,29,12.50
2018,04,18,13,30,12.60
2018,04,18,13,31,12.50
2018,04,18,13,32,12.50
2018,04,18,13,33,12.50
2018,04,18,13,34,12.50
2018,04,18,13,35,12.40
2018,04,18,13,36,12.40
2018,04,18,13,37,12.30
2018,04,18,13,38,12.30
2018,04,18,13,39,12.20
2018,04,18,13,40,12.10
2018,04,18,13,41,12.10
2018,04,18,13,42,12.20
2018,04,18,13,43,12.20
2018,04,18,13,44,12.30
2018,04,18,13,45,12.40
2018,04,18,13,46,12.50
2018,04,18,13,47,12.40
2018,04,18,13,48,12.40
2018,04,18,13,49,12.40
2018,04,18,13,50,12.50
2018,04,18,13,51,12.60
2018,04,18,13,52,12.50
2018,04,18,13,53,12.40
2018,04,18,13,54,12.30
2018,04,18,13,55,12.30
2018,04,18,13,56,12.20
2018,04,18,13,57,12.30
2018,04,18,13,58,12.40
2018,04,18,13,59,12.50
2018,04,18,14,00,12.50
2018,04,18,14,01,12.40
2018,04,18,14,02,12.40
2018,04,18,14,03,12.40
2018,04,18,14,04,12.50
2018,04,18,14,05,12.60
2018,04,18,14,06,12.50
2018,04,18,14,07,12.50
2018,04,18,14,08,12.50
2018,04,18,14,09,12.40
2018,04,18,14,10,12.50
2018,04,18,14,11,12.60
2018,04,18,14,12,12.70
2018,04,18,14,13,12.70
2018,04,18,14,14,12.60
2018,04,18,14,15,12.60
2018,04,18,14,16,12.60
2018,04,18,14,17,12.60
2018,04,18,14,18,12.70
2018,04,18,14,19,12.70
2018,04,18,14,20,12.70
2018,04,18,14,21,12.70
2018,04,18,14,22,12.50
2018,04,18,14,23,12.40
2018,04,18,14,24,12.40
2018,04,18,14,25,12.30
2018,04,18,14,26,12.30
2018,04,18,14,27,12.20
2018,04,18,14,28,12.10
2018,04,18,14,29,12.10
2018,04,18,14,30,12.10
2018,04,18,14,31,12.10
2018,04,18,14,32,12.00
2018,04,18,14,33,11.90
2018,04,18,14,34,11.90
2018,04,18,14,35,12.00
2018,04,18,14,36,12.00
2018,04,18,14,37,12.10
2018,04,18,14,38,12.10
2018,04,18,14,39,12.10
2018,04,18,14,40,12.20
2018,04,18,14,41,12.20
2018,04,18,14,42,12.30
2018,04,18,14,43,12.30
2018,04,18,14,44,12.40
2018,04,18,14,45,12.40
2018,04,18,14,46,12.40
2018,04,18,14,47,12.50
2018,04,18,14,48,12.60
2018,04,18,14,49,12.50
2018,04,18,14,50,12.40
2018,04,18,14,51,12.40
2018,04,18,14,52,12.40
2018,04,18,14,53,12.50
2018,04,18,14,54,12.60
2018,04,18,14,55,12.70
2018,04,18,14,56,12.80
2018,04,18,14,57,12.80
2018,04,18,14,58,12.90
2018,04,18,14,59,12.90
2018,04,18,15,00,12.90
2018,04,18,15,01,12.90
2018,04,18,15,02,12.80
2018,04,18,15,03,12.70
2018,04,18,15,04,12.70
2018,04,18,15,05,12.70
2018,04,18,15,06,12.80
2018,04,18,15,07,12.80
2018,04,18,15,08,12.80
2018,04,18,15,09,12.90
2018,04,18,15,10,12.90
2018,04,18,15,11,12.90
2018,04,18,15,12,12.90
2018,04,18,15,13,12.90
2018,04,18,15,14,12.90
2018,04,18,15,15,12.90
2018,04,18,15,16,12.90
2018,04,18,15,17,13.00
2018,04,18,15,18,13.00
2018,04,18,15,19,13.00
2018,04,18,15,20,13.00
2018,04,18,15,21,13.00
2018,04,18,15,22,13.00
2018,04,18,15,23,13.00
2018,04,18,15,24,13.10
2018,04,18,15,25,13.20
2018,04,18,15,26,13.20
2018,04,18,15,27,13.10
2018,04,18,15,28,13.00
2018,04,18,15,29,12.90
2018,04,18,15,30,12.80
2018,04,18,15,31,12.80
2018,04,18,15,32,12.80
2018,04,18,15,33,12.80
2018,04,18,15,34,12.70
2018,04,18,15,35,12.70
2018,04,18,15,36,12.80
2018,04,18,15,37,12.90
2018,04,18,15,38,12.90
2018,04,18,15,39,12.90
2018,04,18,15,40,12.90
2018,04,18,15,41,12.80
2018,04,18,15,42,12.70
2018,04,18,15,43,12.70
2018,04,18,15,44,12.80
2018,04,18,15,45,12.80
2018,04,18,15,46,12.90
2018,04,18,15,47,13.00
2018,04,18,15,48,13.10
2018,04,18,15,49,13.10
2018,04,18,15,50,13.10
2018,04,18,15,51,13.10
2018,04,18,15,52,13.10
2018,04,18,15,53,13.10
2018,04,18,15,54,13.10
2018,04,18,15,55,13.20
2018,04,18,15,56,13.30
2018,04,18,15,57,13.30
2018,04,18,15,58,13.30
2018,04,18,15,59,13.30
2018,04,18,16,00,13.30
2018,04,18,16,01,13.30
2018,04,18,16,02,13.40
2018,04,18,16,03,13.40
2018,04,18,16,04,13.30
2018,04,18,16,05,13.20
2018,04,18,16,06,13.20
2018,04,18,16,07,13.10
2018,04,18,16,08,13.10
2018,04,18,16,09,13.10
2018,04,18,16,10,13.10
2018,04,18,16,11,13.10
2018,04,18,16,12,13.10
2018,04,18,16,13,13.20
2018,04,18,16,14,13.20
2018,04,18,16,15,13.30
2018,04,18,16,16,13.20
2018,04,18,16,17,13.20
2018,04,18,16,18,13.30
2018,04,18,16,19,13.30
2018,04,18,16,20,13.30
2018,04,18,16,21,13.20
2018,04,18,16,22,13.20
2018,04,18,16,23,13.10
2018,04,18,16,24,13.00
2018,04,18,16,25,13.00
2018,04,18,16,26,13.00
2018,04,18,16,27,12.90
2018,04,18,16,28,12.90
2018,04,18,16,29,13.00
2018,04,18,16,30,13.00
2018,04,18,16,31,13.10
2018,04,18,16,32,13.20
2018,04,18,16,33,13.20
2018,04,18,16,34,13.30
2018,04,18,16,35,13.40
2018,04,18,16,36,13.50
2018,04,18,16,37,13.60
2018,04,18,16,38,13.50
2018,04,18,16,39,13.40
2018,04,18,16,40,13.30
2018,04,18,16,41,13.10
2018,04,18,16,42,13.00
2018,04,18,16,43,12.90
2018,04,18,16,44,12.80
2018,04,18,16,45,12.70
2018,04,18,16,46,12.70
2018,04,18,16,47,12.70
2018,04,18,16,48,12.70
2018,04,18,16,49,12.70
2018,04,18,16,50,12.80
2018,04,18,16,51,12.80
2018,04,18,16,52,12.80
2018,04,18,16,53,12.80
2018,04,18,16,54,12.70
2018,04,18,16,55,12.70
2018,04,18,16,56,12.60
2018,04,18,16,57,12.50
2018,04,18,16,58,12.50
2018,04,18,16,59,12.50
2018,04,18,17,00,12.40
2018,04,18,17,01,12.30
2018,04,18,17,02,12.20
2018,04,18,17,03,12.10
2018,04,18,17,04,12.10
2018,04,18,17,05,12.10
2018,04,18,17,06,12.10
2018,04,18,17,07,12.00
2018,04,18,17,08,12.00
2018,04,18,17,09,12.00
2018,04,18,17,10,12.00
2018,04,18,17,11,12.10
2018,04,18,17,12,12.10
2018,04,18,17,13,12.20
2018,04,18,17,14,12.20
2018,04,18,17,15,12.30
2018,04,18,17,16,12.30
2018,04,18,17,17,12.30
2018,04,18,17,18,12.30
2018,04,18,17,19,12.40
2018,04,18,17,20,12.40
2018,04,18,17,21,12.30
2018,04,18,17,22,12.30
2018,04,18,17,23,12.30
2018,04,18,17,24,12.30
2018,04,18,17,25,12.30
2018,04,18,17,26,12.30
2018,04,18,17,27,12.30
2018,04,18,17,28,12.30
2018,04,18,17,29,12.40
2018,04,18,17,30,12.50
2018,04,18,17,31,12.60
2018,04,18,17,32,12.70
2018,04,18,17,33,12.90
2018,04,18,17,34,13.00
2018,04,18,17,35,13.20
2018,04,18,17,36,13.30
2018,04,18,17,37,13.40
2018,04,18,17,38,13.40
2018,04,18,17,39,13.40
2018,04,18,17,40,13.30
2018,04,18,17,41,13.30
2018,04,18,17,42,13.10
2018,04,18,17,43,13.10
2018,04,18,17,44,13.00
2018,04,18,17,45,13.00
2018,04,18,17,46,13.10
2018,04,18,17,47,13.00